Location: Newark
(52.8300°N, 8.0000°E)
Time: 21:45:57
(UTC+00:00)

STARLINK-1117 - Pass Details

Date: 31 January 2020
Orbit: 348 x 351 km, 53.0° (Epoch: 25 February)

Event Time Altitude Azimuth Distance (km) Brightness Sun altitude
Rises 17:00:10 0° 284° (WNW) 2,173 7.8 -7.8°
Reaches altitude 10° 17:02:15 10° 276° (W) 1,327 6.8 -8.1°
Maximum altitude 17:05:03 40° 205° (SSW) 534 4.0 -8.5°
Drops below altitude 10° 17:07:51 10° 133° (SE) 1,321 5.3 -8.9°
Enters shadow 17:09:22 - 127° (SE) 1,936 6.1 -9.1°
